When you browse on this site, cookies collect data to enhance your experience and personalize the content and advertising you see.
Visit our Privacy Policy to learn more. By continuing to use the site, you agree to this use of cookies and data.
  • în România
  • Lista ţărilor
  • Pe 7 zile
  • Temperatura apei
  • Hartă satelitară
  • Meteo pe hartă
  • Widget-uri
  • user-avatar
    Intrare

    Meteo pe oră la Nikolaevka

    Astăzi, 20 Mai, Luni

    Timp Temperatura Precipitaţii Vânt Presiune Umiditate
    00:00 +4°C° 0 mm 3 m/s 758 mmHg 65%
    01:00 +3°C° 0 mm 3 m/s 758 mmHg 66%
    02:00 +3°C° 0 mm 3 m/s 758 mmHg 68%
    03:00 +3°C° 0 mm 2 m/s 758 mmHg 72%
    04:00 +3°C° 0 mm 3 m/s 758 mmHg 70%
    05:00 +4°C° 0 mm 3 m/s 759 mmHg 68%
    06:00 +5°C° 0 mm 3 m/s 759 mmHg 66%
    07:00 +6°C° 0 mm 4 m/s 759 mmHg 61%
    08:00 +7°C° 0 mm 4 m/s 759 mmHg 56%
    09:00 +10°C° 0 mm 4 m/s 759 mmHg 52%
    10:00 +10°C° 0 mm 4 m/s 759 mmHg 52%
    11:00 +9°C° 0 mm 5 m/s 759 mmHg 52%
    12:00 +9°C° 0 mm 5 m/s 759 mmHg 52%
    13:00 +10°C° 0 mm 5 m/s 759 mmHg 52%
    14:00 +10°C° 0 mm 5 m/s 759 mmHg 52%
    15:00 +10°C° 0 mm 5 m/s 759 mmHg 52%
    16:00 +10°C° 0.1 mm 5 m/s 759 mmHg 54%
    17:00 +11°C° 0.1 mm 4 m/s 759 mmHg 55%
    18:00 +11°C° 0.1 mm 4 m/s 759 mmHg 57%
    19:00 +9°C° 0 mm 3 m/s 759 mmHg 60%
    20:00 +8°C° 0 mm 3 m/s 759 mmHg 64%
    21:00 +7°C° 0 mm 3 m/s 759 mmHg 67%
    22:00 +7°C° 0 mm 3 m/s 760 mmHg 69%
    23:00 +5°C° 0 mm 3 m/s 760 mmHg 71%

    Mâine, 21 Mai, Marţi

    Timp Temperatura Precipitaţii Vânt Presiune Umiditate
    00:00 +5°C° 0 mm 3 m/s 760 mmHg 73%
    01:00 +4°C° 0 mm 3 m/s 760 mmHg 74%
    02:00 +4°C° 0 mm 3 m/s 760 mmHg 76%
    03:00 +4°C° 0 mm 3 m/s 761 mmHg 77%
    04:00 +5°C° 0 mm 3 m/s 761 mmHg 75%
    05:00 +7°C° 0 mm 3 m/s 761 mmHg 72%
    06:00 +7°C° 0 mm 4 m/s 761 mmHg 70%
    07:00 +8°C° 0 mm 4 m/s 761 mmHg 62%
    08:00 +11°C° 0 mm 4 m/s 761 mmHg 54%
    09:00 +12°C° 0 mm 5 m/s 761 mmHg 46%
    10:00 +13°C° 0 mm 5 m/s 761 mmHg 45%
    11:00 +13°C° 0 mm 4 m/s 761 mmHg 44%
    12:00 +14°C° 0 mm 4 m/s 761 mmHg 42%
    13:00 +14°C° 0 mm 4 m/s 761 mmHg 41%
    14:00 +15°C° 0 mm 4 m/s 761 mmHg 41%
    15:00 +15°C° 0 mm 4 m/s 761 mmHg 40%
    16:00 +15°C° 0 mm 4 m/s 761 mmHg 43%
    17:00 +14°C° 0 mm 3 m/s 761 mmHg 47%
    18:00 +14°C° 0 mm 3 m/s 761 mmHg 50%
    19:00 +14°C° 0 mm 2 m/s 761 mmHg 52%
    20:00 +12°C° 0 mm 2 m/s 761 mmHg 55%
    21:00 +11°C° 0 mm 1 m/s 761 mmHg 57%
    22:00 +10°C° 0 mm 1 m/s 761 mmHg 59%
    23:00 +10°C° 0 mm 1 m/s 761 mmHg 61%

    Poimâine, 22 Mai, Miercuri

    Timp Temperatura Precipitaţii Vânt Presiune Umiditate
    00:00 +8°C° 0 mm 2 m/s 761 mmHg 62%
    01:00 +8°C° 0 mm 2 m/s 761 mmHg 64%
    02:00 +8°C° 0 mm 2 m/s 761 mmHg 66%
    03:00 +8°C° 0 mm 2 m/s 761 mmHg 68%
    04:00 +8°C° 0 mm 2 m/s 761 mmHg 67%
    05:00 +9°C° 0 mm 2 m/s 761 mmHg 66%
    06:00 +10°C° 0 mm 2 m/s 760 mmHg 66%
    07:00 +11°C° 0.5 mm 1 m/s 760 mmHg 69%
    08:00 +12°C° 0.5 mm 1 m/s 760 mmHg 72%
    09:00 +12°C° 0.5 mm 1 m/s 759 mmHg 75%
    10:00 +12°C° 1.4 mm 2 m/s 759 mmHg 79%
    11:00 +10°C° 1.4 mm 2 m/s 759 mmHg 83%
    12:00 +10°C° 1.4 mm 3 m/s 758 mmHg 88%
    13:00 +11°C° 0.3 mm 3 m/s 758 mmHg 84%
    14:00 +13°C° 0.3 mm 3 m/s 757 mmHg 81%
    15:00 +15°C° 0.3 mm 2 m/s 757 mmHg 77%
    16:00 +15°C° 0.7 mm 2 m/s 757 mmHg 80%
    17:00 +15°C° 0.7 mm 2 m/s 756 mmHg 82%
    18:00 +16°C° 0.7 mm 1 m/s 756 mmHg 85%
    19:00 +15°C° 0.1 mm 2 m/s 756 mmHg 85%
    20:00 +15°C° 0.1 mm 2 m/s 756 mmHg 86%
    21:00 +14°C° 0.1 mm 2 m/s 756 mmHg 86%
    22:00 +13°C° 0 mm 3 m/s 755 mmHg 85%
    23:00 +13°C° 0 mm 4 m/s 755 mmHg 84%

    23 Mai, Joi

    Timp Temperatura Precipitaţii Vânt Presiune Umiditate
    00:00 +13°C° 0 mm 4 m/s 755 mmHg 83%
    01:00 +12°C° 0 mm 4 m/s 755 mmHg 83%
    02:00 +12°C° 0 mm 4 m/s 754 mmHg 84%
    03:00 +12°C° 0 mm 4 m/s 754 mmHg 84%
    04:00 +13°C° 0 mm 5 m/s 754 mmHg 82%
    05:00 +13°C° 0 mm 5 m/s 754 mmHg 81%
    06:00 +14°C° 0 mm 5 m/s 754 mmHg 79%
    07:00 +16°C° 0 mm 5 m/s 754 mmHg 73%
    08:00 +19°C° 0 mm 6 m/s 753 mmHg 67%
    09:00 +21°C° 0 mm 7 m/s 753 mmHg 60%
    10:00 +21°C° 0 mm 7 m/s 753 mmHg 56%
    11:00 +22°C° 0 mm 8 m/s 753 mmHg 51%
    12:00 +23°C° 0 mm 8 m/s 752 mmHg 47%
    13:00 +23°C° 0 mm 8 m/s 752 mmHg 46%
    14:00 +23°C° 0 mm 8 m/s 751 mmHg 45%
    15:00 +23°C° 0 mm 8 m/s 751 mmHg 45%
    16:00 +22°C° 0 mm 7 m/s 751 mmHg 49%
    17:00 +22°C° 0 mm 6 m/s 750 mmHg 53%
    18:00 +21°C° 0 mm 6 m/s 750 mmHg 56%
    19:00 +20°C° 0 mm 6 m/s 750 mmHg 56%
    20:00 +19°C° 0 mm 6 m/s 750 mmHg 55%
    21:00 +17°C° 0 mm 6 m/s 750 mmHg 54%
    22:00 +17°C° 0.1 mm 6 m/s 750 mmHg 56%
    23:00 +16°C° 0.1 mm 6 m/s 750 mmHg 58%

    24 Mai, Vineri

    Timp Temperatura Precipitaţii Vânt Presiune Umiditate
    00:00 +16°C° 0.1 mm 6 m/s 750 mmHg 60%
    01:00 +15°C° 0.7 mm 5 m/s 751 mmHg 68%
    02:00 +14°C° 0.7 mm 5 m/s 751 mmHg 76%
    03:00 +12°C° 0.7 mm 5 m/s 752 mmHg 84%
    04:00 +12°C° 0 mm 5 m/s 752 mmHg 83%
    05:00 +11°C° 0 mm 4 m/s 753 mmHg 82%
    06:00 +11°C° 0 mm 4 m/s 753 mmHg 80%
    07:00 +12°C° 0 mm 4 m/s 754 mmHg 74%
    08:00 +13°C° 0 mm 5 m/s 755 mmHg 67%
    09:00 +14°C° 0 mm 5 m/s 755 mmHg 61%
    10:00 +14°C° 0 mm 5 m/s 755 mmHg 55%
    11:00 +15°C° 0 mm 4 m/s 756 mmHg 50%
    12:00 +17°C° 0 mm 4 m/s 756 mmHg 44%
    13:00 +17°C° 0 mm 4 m/s 756 mmHg 44%
    14:00 +17°C° 0 mm 4 m/s 756 mmHg 44%
    15:00 +17°C° 0 mm 4 m/s 756 mmHg 43%
    16:00 +16°C° 0 mm 3 m/s 757 mmHg 47%
    17:00 +16°C° 0 mm 3 m/s 757 mmHg 51%
    18:00 +14°C° 0 mm 3 m/s 757 mmHg 55%
    19:00 +13°C° 0 mm 3 m/s 758 mmHg 58%
    20:00 +13°C° 0 mm 2 m/s 758 mmHg 61%
    21:00 +10°C° 0 mm 2 m/s 758 mmHg 64%
    22:00 +9°C° 0 mm 2 m/s 759 mmHg 65%
    23:00 +9°C° 0 mm 2 m/s 759 mmHg 67%

    25 Mai, Sâmbătă

    Timp Temperatura Precipitaţii Vânt Presiune Umiditate
    00:00 +8°C° 0 mm 2 m/s 759 mmHg 69%
    01:00 +8°C° 0 mm 2 m/s 759 mmHg 70%
    02:00 +7°C° 0 mm 2 m/s 759 mmHg 71%
    03:00 +7°C° 0 mm 2 m/s 760 mmHg 72%
    04:00 +8°C° 0 mm 2 m/s 760 mmHg 71%
    05:00 +9°C° 0 mm 3 m/s 760 mmHg 69%
    06:00 +10°C° 0 mm 3 m/s 760 mmHg 68%
    07:00 +11°C° 0 mm 3 m/s 760 mmHg 63%
    08:00 +13°C° 0 mm 3 m/s 760 mmHg 59%
    09:00 +16°C° 0 mm 3 m/s 760 mmHg 54%
    10:00 +17°C° 0 mm 3 m/s 760 mmHg 50%
    11:00 +18°C° 0 mm 3 m/s 760 mmHg 47%
    12:00 +19°C° 0 mm 3 m/s 759 mmHg 43%
    13:00 +20°C° 0 mm 3 m/s 759 mmHg 43%
    14:00 +20°C° 0 mm 3 m/s 759 mmHg 42%
    15:00 +21°C° 0 mm 3 m/s 758 mmHg 42%
    16:00 +20°C° 0 mm 3 m/s 758 mmHg 47%
    17:00 +20°C° 0 mm 3 m/s 758 mmHg 51%
    18:00 +20°C° 0 mm 3 m/s 758 mmHg 56%
    19:00 +18°C° 0 mm 3 m/s 758 mmHg 59%
    20:00 +16°C° 0 mm 3 m/s 758 mmHg 63%
    21:00 +14°C° 0 mm 4 m/s 757 mmHg 66%
    22:00 +14°C° 0 mm 4 m/s 757 mmHg 65%
    23:00 +13°C° 0 mm 4 m/s 757 mmHg 63%
    Arată mai mult